Location: Ash Swamp
(41.5170°N, 74.6157°W)
Time: 02:47:27
(UTC+00:00)

Cosmos 1666 Rocket - Pass Details

Date: 14 July 2020
Orbit: 603 x 633 km, 82.5° (Epoch: 14 August)

Event Time Altitude Azimuth Distance (km) Brightness Sun altitude
Exits shadow 05:15:13 60° 4° (N) 705 4.0 -26.8°
Drops below altitude 10° 05:18:50 10° 7° (N) 1,977 7.1 -26.8°
Sets 05:21:03 0° 8° (N) 2,882 8.3 -26.8°
